DUZEAR1 KLBB-KABI

Flight info

Callsign DUZEAR1
Flight time 0h 34m
Altitude 21000
Route KLBB/35L N0280F210 DCT WODOK DCT CRAIG DCT ZATIL DCT WABVI DCT ROTAN DCT LEWEL DCT ANETY DCT KABI/17L
Aircraft PC12/L-SDE2FGIRWY/SB1

Departure

Time 2026-04-24 01:14
Airport Lubbock Preston Smith International Airport (KLBB)

Arrival

Time 2026-04-24 01:49
Airport Abilene Regional Airport (KABI)
Time Latitude Longitude Altitude Speed Heading
2026-04-24 00:52 33.65896 -101.83259 3289 ft 0 kts 359°
2026-04-24 01:12 33.65909 -101.83260 3289 ft 9 kts
2026-04-24 01:13 33.65919 -101.83160 3289 ft 9 kts 91°
2026-04-24 01:13 33.65863 -101.83077 3289 ft 15 kts 171°
2026-04-24 01:13 33.65770 -101.82997 3289 ft 21 kts 91°
2026-04-24 01:13 33.65824 -101.82886 3288 ft 21 kts 354°
2026-04-24 01:14 33.66126 -101.82888 3286 ft 75 kts 360°
2026-04-24 01:14 33.66803 -101.82880 3457 ft 108 kts
2026-04-24 01:14 33.67380 -101.82213 3825 ft 143 kts 79°
2026-04-24 01:14 33.67018 -101.81021 4297 ft 165 kts 119°
2026-04-24 01:15 33.66533 -101.79694 4905 ft 174 kts 108°
2026-04-24 01:15 33.66190 -101.78433 5945 ft 159 kts 116°
2026-04-24 01:15 33.65678 -101.77177 6512 ft 173 kts 122°
2026-04-24 01:15 33.65174 -101.75876 7308 ft 171 kts 121°
2026-04-24 01:16 33.64674 -101.74566 8026 ft 174 kts 121°
2026-04-24 01:16 33.64162 -101.73240 8750 ft 176 kts 121°
2026-04-24 01:16 33.63642 -101.71894 9459 ft 178 kts 121°
2026-04-24 01:16 33.62996 -101.70650 10156 ft 174 kts 140°
2026-04-24 01:17 33.62177 -101.69576 10880 ft 175 kts 138°
2026-04-24 01:17 33.61374 -101.68466 11584 ft 176 kts 138°
2026-04-24 01:17 33.60560 -101.67354 12292 ft 178 kts 138°
2026-04-24 01:17 33.59736 -101.66233 12993 ft 181 kts 139°
2026-04-24 01:18 33.58891 -101.65090 13666 ft 185 kts 139°
2026-04-24 01:18 33.58031 -101.63923 14324 ft 189 kts 140°
2026-04-24 01:18 33.57152 -101.62731 14975 ft 193 kts 140°
2026-04-24 01:18 33.56257 -101.61515 15623 ft 196 kts 140°
2026-04-24 01:19 33.55345 -101.60279 16254 ft 200 kts 141°
2026-04-24 01:19 33.54410 -101.59013 16888 ft 204 kts 141°
2026-04-24 01:19 33.53462 -101.57728 17513 ft 208 kts 141°
2026-04-24 01:19 33.52493 -101.56414 18124 ft 212 kts 141°
2026-04-24 01:20 33.51512 -101.55087 18737 ft 215 kts 141°
2026-04-24 01:20 33.50513 -101.53733 19417 ft 217 kts 141°
2026-04-24 01:20 33.49506 -101.52369 20074 ft 220 kts 141°
2026-04-24 01:20 33.48487 -101.50991 20672 ft 223 kts 141°
2026-04-24 01:21 33.47496 -101.49643 20746 ft 223 kts 142°
2026-04-24 01:21 33.46374 -101.48164 20768 ft 257 kts 141°
2026-04-24 01:21 33.45125 -101.46483 20772 ft 282 kts 139°
2026-04-24 01:21 33.43798 -101.44664 20768 ft 297 kts 138°
2026-04-24 01:22 33.42412 -101.42780 20763 ft 305 kts 138°
2026-04-24 01:22 33.40998 -101.40865 20761 ft 309 kts 137°
2026-04-24 01:22 33.39720 -101.38763 20757 ft 314 kts 130°
2026-04-24 01:22 33.38473 -101.36616 20760 ft 314 kts 131°
2026-04-24 01:23 33.37211 -101.34479 20759 ft 315 kts 131°
2026-04-24 01:23 33.35942 -101.32338 20758 ft 316 kts 131°
2026-04-24 01:23 33.34677 -101.30192 20758 ft 316 kts 131°
2026-04-24 01:23 33.33414 -101.28048 20760 ft 315 kts 131°
2026-04-24 01:24 33.32147 -101.25903 20758 ft 316 kts 131°
2026-04-24 01:24 33.30877 -101.23756 20758 ft 316 kts 131°
2026-04-24 01:24 33.29606 -101.21606 20758 ft 316 kts 131°
2026-04-24 01:24 33.28338 -101.19463 20757 ft 316 kts 131°
2026-04-24 01:25 33.27068 -101.17315 20757 ft 316 kts 131°
2026-04-24 01:25 33.25798 -101.15172 20757 ft 316 kts 131°
2026-04-24 01:25 33.24527 -101.13028 20758 ft 316 kts 131°
2026-04-24 01:25 33.23259 -101.10888 20758 ft 316 kts 131°
2026-04-24 01:26 33.21987 -101.08745 20759 ft 316 kts 131°
2026-04-24 01:26 33.20717 -101.06606 20758 ft 316 kts 131°
2026-04-24 01:26 33.19444 -101.04464 20757 ft 316 kts 131°
2026-04-24 01:26 33.18173 -101.02324 20757 ft 316 kts 131°
2026-04-24 01:27 33.16900 -101.00183 20757 ft 316 kts 131°
2026-04-24 01:27 33.15627 -100.98045 20758 ft 316 kts 131°
2026-04-24 01:27 33.14354 -100.95906 20757 ft 316 kts 131°
2026-04-24 01:27 33.13085 -100.93778 20757 ft 316 kts 131°
2026-04-24 01:28 33.11810 -100.91638 20757 ft 316 kts 131°
2026-04-24 01:28 33.10555 -100.89532 20758 ft 316 kts 131°
2026-04-24 01:28 33.09263 -100.87368 20758 ft 316 kts 131°
2026-04-24 01:28 33.07988 -100.85234 20759 ft 316 kts 131°
2026-04-24 01:29 33.06730 -100.83127 20759 ft 316 kts 131°
2026-04-24 01:29 33.05455 -100.80993 20757 ft 316 kts 130°
2026-04-24 01:29 33.04182 -100.78865 20759 ft 316 kts 130°
2026-04-24 01:29 33.02905 -100.76734 20758 ft 316 kts 131°
2026-04-24 01:30 33.01630 -100.74605 20758 ft 316 kts 130°
2026-04-24 01:30 33.00356 -100.72476 20759 ft 316 kts 131°
2026-04-24 01:30 32.99085 -100.70356 20758 ft 315 kts 131°
2026-04-24 01:30 32.98221 -100.68913 20757 ft 315 kts 131°
2026-04-24 01:31 32.96946 -100.66788 20758 ft 315 kts 131°
2026-04-24 01:31 32.95256 -100.63975 20758 ft 315 kts 131°
2026-04-24 01:31 32.93980 -100.61850 20757 ft 315 kts 131°
2026-04-24 01:31 32.92704 -100.59729 20751 ft 316 kts 131°
2026-04-24 01:32 32.91835 -100.58285 20593 ft 320 kts 131°
2026-04-24 01:32 32.90525 -100.56112 20199 ft 324 kts 130°
2026-04-24 01:32 32.89206 -100.53919 19772 ft 328 kts 130°
2026-04-24 01:32 32.87910 -100.51761 19346 ft 327 kts 130°
2026-04-24 01:33 32.86559 -100.49521 18902 ft 326 kts 130°
2026-04-24 01:33 32.85250 -100.47349 18469 ft 319 kts 130°
2026-04-24 01:33 32.83949 -100.45191 18043 ft 322 kts 130°
2026-04-24 01:33 32.82655 -100.43041 17615 ft 317 kts 129°
2026-04-24 01:34 32.81598 -100.40714 17190 ft 321 kts 118°
2026-04-24 01:34 32.80750 -100.38508 16803 ft 320 kts 118°
2026-04-24 01:34 32.79798 -100.36088 16375 ft 317 kts 119°
2026-04-24 01:34 32.78865 -100.33727 15952 ft 316 kts 119°
2026-04-24 01:35 32.77978 -100.31468 15550 ft 312 kts 119°
2026-04-24 01:35 32.77061 -100.29128 15127 ft 311 kts 119°
2026-04-24 01:35 32.76153 -100.26816 14723 ft 308 kts 119°
2026-04-24 01:35 32.75246 -100.24515 14313 ft 307 kts 119°
2026-04-24 01:36 32.74349 -100.22239 13908 ft 304 kts 119°
2026-04-24 01:36 32.73452 -100.19964 13503 ft 303 kts 119°
2026-04-24 01:36 32.72570 -100.17717 13094 ft 297 kts 120°
2026-04-24 01:36 32.71693 -100.15495 12698 ft 297 kts 120°
2026-04-24 01:37 32.70816 -100.13284 12304 ft 297 kts 120°
2026-04-24 01:37 32.69947 -100.11081 11915 ft 292 kts 120°
2026-04-24 01:37 32.69087 -100.08904 11525 ft 292 kts 120°
2026-04-24 01:37 32.68254 -100.06800 11148 ft 290 kts 120°
2026-04-24 01:38 32.67400 -100.04642 10762 ft 286 kts 121°
2026-04-24 01:38 32.66557 -100.02510 10373 ft 284 kts 120°
2026-04-24 01:38 32.65766 -100.00512 10014 ft 281 kts 121°
2026-04-24 01:38 32.64941 -99.98431 9642 ft 277 kts 121°
2026-04-24 01:39 32.64120 -99.96363 9273 ft 276 kts 121°
2026-04-24 01:39 32.63309 -99.94321 9017 ft 270 kts 121°
2026-04-24 01:39 32.62520 -99.92321 8773 ft 267 kts 121°
2026-04-24 01:39 32.61726 -99.90329 8430 ft 268 kts 121°
2026-04-24 01:40 32.61139 -99.88211 8066 ft 272 kts 108°
2026-04-24 01:40 32.60732 -99.86022 7711 ft 271 kts 109°
2026-04-24 01:40 32.60306 -99.83856 7349 ft 268 kts 110°
2026-04-24 01:40 32.59914 -99.81827 7033 ft 232 kts 110°
2026-04-24 01:41 32.59573 -99.80049 6831 ft 217 kts 111°
2026-04-24 01:41 32.59231 -99.78330 6592 ft 210 kts 110°
2026-04-24 01:41 32.59055 -99.76580 6350 ft 218 kts 95°
2026-04-24 01:41 32.59085 -99.74801 6073 ft 213 kts 95°
2026-04-24 01:42 32.59095 -99.73152 5852 ft 180 kts 97°
2026-04-24 01:42 32.59094 -99.71687 5749 ft 178 kts 99°
2026-04-24 01:42 32.58860 -99.70303 5532 ft 167 kts 120°
2026-04-24 01:42 32.58295 -99.69146 5307 ft 157 kts 137°
2026-04-24 01:43 32.57524 -99.68298 5101 ft 149 kts 151°
2026-04-24 01:43 32.56594 -99.67748 4896 ft 148 kts 166°
2026-04-24 01:43 32.55621 -99.67532 4690 ft 135 kts 179°
2026-04-24 01:43 32.54656 -99.67541 4518 ft 144 kts 181°
2026-04-24 01:44 32.53650 -99.67535 4321 ft 144 kts 181°
2026-04-24 01:44 32.52655 -99.67529 4126 ft 142 kts 181°
2026-04-24 01:44 32.51656 -99.67524 3930 ft 145 kts 181°
2026-04-24 01:44 32.50707 -99.67518 3727 ft 121 kts 181°
2026-04-24 01:45 32.49964 -99.67511 3561 ft 100 kts 180°
2026-04-24 01:45 32.49244 -99.67507 3453 ft 105 kts 180°
2026-04-24 01:45 32.48528 -99.67508 3309 ft 97 kts 180°
2026-04-24 01:45 32.47912 -99.67505 3183 ft 87 kts 180°
2026-04-24 01:46 32.47256 -99.67504 3069 ft 100 kts 176°
2026-04-24 01:46 32.46547 -99.67501 2935 ft 103 kts 177°
2026-04-24 01:46 32.45833 -99.67497 2792 ft 102 kts 177°
2026-04-24 01:46 32.45135 -99.67494 2644 ft 96 kts 178°
2026-04-24 01:47 32.44517 -99.67491 2500 ft 84 kts 176°
2026-04-24 01:47 32.43916 -99.67489 2401 ft 91 kts 176°
2026-04-24 01:47 32.43263 -99.67485 2289 ft 97 kts 176°
2026-04-24 01:47 32.42623 -99.67485 2145 ft 84 kts 178°
2026-04-24 01:48 32.42060 -99.67473 2039 ft 80 kts 176°
2026-04-24 01:48 32.41511 -99.67470 1949 ft 81 kts 178°
2026-04-24 01:48 32.40932 -99.67475 1834 ft 82 kts 179°
2026-04-24 01:48 32.40391 -99.67474 1777 ft 70 kts 178°
2026-04-24 01:49 32.40037 -99.67475 1775 ft 40 kts 181°
2026-04-24 01:49 32.39782 -99.67472 1776 ft 38 kts 180°
2026-04-24 01:49 32.39601 -99.67472 1778 ft 18 kts 179°
2026-04-24 01:49 32.39438 -99.67470 1779 ft 21 kts 180°
2026-04-24 01:50 32.39315 -99.67522 1778 ft 14 kts 264°
2026-04-24 01:50 32.39318 -99.67629 1776 ft 11 kts 310°
2026-04-24 01:50 32.39427 -99.67634 1776 ft 25 kts 359°
2026-04-24 01:50 32.39629 -99.67636 1776 ft 29 kts 359°
2026-04-24 01:51 32.39849 -99.67636 1776 ft 33 kts 360°
2026-04-24 01:51 32.40085 -99.67638 1776 ft 27 kts 360°
2026-04-24 01:51 32.40265 -99.67639 1776 ft 25 kts 360°
2026-04-24 01:51 32.40499 -99.67639 1776 ft 39 kts 359°
2026-04-24 01:52 32.40654 -99.67640 1776 ft 21 kts
2026-04-24 01:52 32.40786 -99.67641 1777 ft 18 kts 359°
2026-04-24 01:52 32.40842 -99.67718 1776 ft 20 kts 271°
2026-04-24 01:52 32.40842 -99.67903 1776 ft 19 kts 270°
2026-04-24 01:53 32.40841 -99.68096 1776 ft 18 kts 270°
2026-04-24 01:53 32.40840 -99.68249 1776 ft 13 kts 269°
2026-04-24 01:53 32.40866 -99.68355 1776 ft 8 kts
2026-04-24 01:53 32.40985 -99.68354 1776 ft 26 kts 359°
2026-04-24 01:54 32.41129 -99.68354 1776 ft 27 kts 360°
2026-04-24 01:54 32.41254 -99.68356 1776 ft 13 kts
2026-04-24 01:54 32.41315 -99.68323 1776 ft 0 kts 85°
2026-04-24 01:54 32.41316 -99.68289 1776 ft 0 kts 91°
2026-04-24 01:55 32.41314 -99.68249 1776 ft 12 kts 92°
2026-04-24 01:55 32.41315 -99.68196 1776 ft 3 kts 64°
2026-04-24 01:55 32.41328 -99.68192 1776 ft 0 kts 356°
2026-04-24 01:56 32.41331 -99.68192 1776 ft 0 kts 360°